This is the latest recevied weather packets stored in our database for station/object K4XP. If no packets are shown the sender has not sent any weather packets the latest 10 day(s).
| Time | Temp. | Humidity | Pressure | Rain* | Wind** | Luminosity | Snow |
|---|---|---|---|---|---|---|---|
| 1787959836 | 21.11° C | 91% | 1017.9 hPa | 10.67 mm | - | - | - |
| 1787959527 | 21.11° C | 91% | 1018 hPa | 15.24 mm | - | - | - |
| 1787959230 | 21.11° C | 91% | 1018.3 hPa | 20.57 mm | - | - | - |
| 1787958931 | 21.11° C | 91% | 1018.4 hPa | 23.37 mm | - | - | - |
| 1787958625 | 21.11° C | 91% | 1018.1 hPa | 24.89 mm | - | - | - |
| 1787958325 | 21.11° C | 91% | 1018.1 hPa | 25.65 mm | - | - | - |
| 1787958044 | 21.11° C | 91% | 1018.1 hPa | 26.67 mm | - | - | - |
| 1787957735 | 21.11° C | 91% | 1018 hPa | 30.23 mm | - | - | - |
| 1787957434 | 21.11° C | 91% | 1018.3 hPa | 32.26 mm | - | - | - |
| 1787957141 | 21.11° C | 90% | 1018.5 hPa | 35.31 mm | - | - | - |
| 1787956839 | 21.11° C | 91% | 1018.6 hPa | 37.34 mm | - | - | - |
| 1787956530 | 21.67° C | 91% | 1018.4 hPa | 36.32 mm | - | - | - |
| 1787956231 | 21.67° C | 90% | 1018.3 hPa | 35.56 mm | - | - | - |
| 1787955941 | 21.67° C | 90% | 1018.4 hPa | 30.48 mm | - | - | - |
| 1787955648 | 21.67° C | 90% | 1018.4 hPa | 25.15 mm | - | - | - |
| 1787955338 | 21.67° C | 90% | 1018.3 hPa | 22.35 mm | - | - | - |
| 1787955036 | 22.22° C | 89% | 1018.3 hPa | 21.34 mm | - | - | - |
| 1787954732 | 22.22° C | 90% | 1017.6 hPa | 20.07 mm | - | - | - |
| 1787954424 | 22.22° C | 89% | 1017.4 hPa | 18.03 mm | - | - | - |
| 1787954140 | 22.22° C | 89% | 1018 hPa | 12.95 mm | - | - | - |
| 1787953838 | 22.22° C | 88% | 1017.7 hPa | 9.91 mm | - | - | - |
| 1787953544 | 22.78° C | 87% | 1017.5 hPa | 6.1 mm | - | - | - |
| 1787953215 | 22.78° C | 87% | 1017.5 hPa | 3.56 mm | - | - | - |
| 1787952927 | 23.33° C | 86% | 1017.2 hPa | 4.32 mm | - | - | - |
| 1787952646 | 23.89° C | 86% | 1017.5 hPa | 3.81 mm | - | - | - |
* Rain latest hour (hover to see other rain measurements)
** Current wind speed in m/s (hover to see current wind gust speed)